Location: Hains Lake
(37.8540°N, 99.8578°W)
Time: 08:39:37
(UTC+00:00)

Vanguard 1 - Pass Details

Date: 28 April 2021
Orbit: 649 x 3834 km, 34.2° (Epoch: 04 May)

Event Time Altitude Azimuth Distance (km) Brightness Sun altitude
Rises 01:44:13 0° 284° (WNW) 7,083 17.0 -4.1°
Reaches altitude 10° 01:49:18 10° 276° (W) 6,394 15.8 -5.0°
Maximum altitude 02:07:13 34° 222° (SW) 5,193 13.9 -8.2°
Drops below altitude 10° 02:25:31 10° 167° (SSE) 6,425 13.8 -11.5°
Sets 02:30:48 0° 158° (SSE) 7,108 14.0 -12.4°
